Terminal Aerodrome Forecast
Issued by NWS Memphis, TN

Home | Current Version | Previous Version | Text Only | Print | Product List | Glossary On
Versions: 1 2 3 4 5 6 7 8 9 10 11 12 13 14 15
536
FTUS44 KMEG 250709 AAB
TAFJBR
TAF AMD
KJBR 250709Z 2507/2606 29010KT 5SM -TSRA BKN035CB OVC060
      TEMPO 2507/2509 5SM -SHRA OVC040
     FM250900 18010G15KT P6SM VCSH OVC050
     FM251500 18018G28KT P6SM VCTS BKN035CB
     FM252000 19020G30KT P6SM VCSH SCT020 OVC200
     FM260000 22008KT P6SM SCT050 OVC250=

USA.gov is the U.S. government's official web portal to all federal, state and local government web resources and services.